Погода в Краснознаменском

Россия / Саратовская область     51°20′55″N   43°22′23″E
темп.,
°C
ветер,
м/с
пор.,
м/с
влажн.,
%
обл.,
%
осадки,
мм/ч
давл.,
гПа
погр.,
м
24 сентября, пт
пт2401:00+8юз1177100 0.0 101311
04:00+7з1176100 0.0 101310
07:00+7ююв1175100 0.0 101311
10:00+11ю2260100 0.0 1012319
13:00+14ююв4448100 0.0 10121287
16:00+15ю3546100 0.0 10101851
19:00+12ю2257100 0.0 101028
22:00+12юв3562100 0.0 1009123
25 сентября, сб
сб2501:00+10ю377184 0.1 1009234
04:00+9юв3576100 0.1 100995
07:00+8юв3481100 0.0 100969
10:00+12ююв346793 0.0 1009440
13:00+15ююз345287 0.0 10091287
16:00+14юз3352100 0.0 1010714
19:00+12зюз2266100 0.0 101156
22:00+11з2474100 0.0 1012142
26 сентября, вс
вс2601:00+11з3675100 0.0 1012261
04:00+10зюз2577100 0.0 1011193
07:00+8юз34867 0.0 101178
10:00+11юз587396 0.1 1009512
13:00+10ююз5981100 0.5 1008641
16:00+10ююз4994100 2.8 1006494
19:00+10з4893100 3.5 1005405
22:00+9зсз51091100 4.8 1005606
27 сентября, пн
пн2701:00+8з61091100 0.3 1005759
04:00+9зсз4795100 0.3 1006402
07:00+9ссв5992100 0.1 1008597
10:00+10с5989100 0.3 1011483
13:00+13с586945 0.2 1013915
16:00+15с686060 0.9 10151384
19:00+11с6107799 0.2 1017419
22:00+8с4990100 0.2 1019310
28 сентября, вт
вт2801:00+8с4895100 0.0 1020271
04:00+9ссв4790100 0.0 1021331
07:00+9св369099 0.0 1023382
10:00+9всв467580 0.1 1025658
13:00+13всв455011 0.0 10261365
16:00+14св344419 0.0 10261612
19:00+10св34585 0.0 102759
22:00+8св38675 0.0 1029167